Location: Dittelbrunn
(50.0738°N, 10.2196°E)
Time: 22:55:11
(UTC+00:00)

Cosmos 2285 Rocket - Pass Details

Date: 18 September 2020
Orbit: 970 x 1000 km, 74.0° (Epoch: 31 October)

Event Time Altitude Azimuth Distance (km) Brightness Sun altitude
Rises 19:32:51 0° 188° (S) 3,652 6.8 -20.4°
Reaches altitude 10° 19:35:23 10° 185° (S) 2,711 6.1 -20.7°
Maximum altitude 19:41:32 60° 107° (ESE) 1,110 3.9 -21.6°
Drops below altitude 10° 19:47:46 10° 30° (NNE) 2,746 6.4 -22.4°
Sets 19:50:22 0° 27° (NNE) 3,702 7.1 -22.8°
